Погода в Кудеснерах

Россия / Чувашская Республика     55°37′36″N   47°55′18″E
темп.,
°C
ветер,
м/с
пор.,
м/с
влажн.,
%
обл.,
%
осадки,
мм/ч
давл.,
гПа
погр.,
м
7 марта, вс
вс700:00−16з349766 0.0 101232
03:00−16зюз239837 0.0 101220
06:00−16зюз339868 0.0 101132
09:00−14юз369676 0.1 1010201
12:00−9ююз489184 0.0 1009504
15:00−7ю698592 0.1 1005745
18:00−8ю71392100 0.1 1002728
21:00−7ю81494100 1.3 999805
8 марта, пн
пн800:00−6ююз71394100 1.0 994741
03:00−5ю61295100 1.7 992599
06:00−5з101693100 1.6 991675
09:00−10з8148281 1.7 994393
12:00−7зюз7118973 0.0 997712
15:00−6зюз598470 0.0 998746
18:00−9зсз2391100 0.0 99821
21:00−12зсз349278 0.0 100036
9 марта, вт
вт900:00−13зсз47950 0.0 1003113
03:00−16зсз459711 0.0 100682
06:00−18зсз349863 0.0 100838
09:00−16зсз249659 0.0 1010136
12:00−13сз239080 0.0 1011288
15:00−11сз249090 0.0 1011465
18:00−13с3696100 0.1 1012142
21:00−16с4896100 0.2 1014234
10 марта, ср
ср1000:00−20ссз589992 0.0 1014168
03:00−22ссз599996 0.1 1015192
06:00−25ссз5119778 0.0 1017209
09:00−25ссз699569 0.0 1019296
12:00−21ссз699280 0.0 1020469
15:00−19ссз6108778 0.0 1021592
18:00−22ссз499411 0.0 1022141
21:00−24сз47976 0.0 1024112
11 марта, чт
чт1100:00−25сз46980 0.0 102486
03:00−26зсз46990 0.0 102592
06:00−25зсз5109815 0.0 1026156
09:00−20зсз6119656 0.0 1026287
12:00−16зсз6109157 0.0 1026390
15:00−12сз6109055 0.0 1026543
18:00−13зсз499599 0.1 1027200
21:00−14зсз499699 0.1 1029189